Wind_Speed
15 14 12 10 10 10 9 9 8 6 4 4 5 6 9 10 11 12 14 14 13 13 11 11 10 9 8 7 7 6 6 5 5 5 5 5 5 5 5 4 5 5 5
15 14 13 11 10 10 9 10 8 7 4 3 5 6 8 10 11 11 13 14 14 14 13 12 11 10 9 8 8 8 7 7 7 7 7 6 6 6 6 6 6 6 7
14 14 13 11 10 10 9 9 8 7 5 4 4 5 7 10 12 12 14 14 14 14 14 13 12 11 10 10 9 9 9 9 8 8 8 8 8 8 8 8 8 8 8
14 14 13 11 10 9 9 9 8 7 6 5 4 5 7 9 11 13 14 14 15 15 15 14 14 13 12 11 11 11 11 10 10 10 10 10 10 10 10 10 9 9 9
14 13 12 11 10 9 8 8 8 7 5 5 5 5 6 9 10 13 14 15 16 16 16 16 15 15 14 12 12 12 12 12 12 12 12 12 12 12 12 12 12 12 11
13 14 12 11 10 9 8 8 7 7 6 5 5 5 6 8 9 12 14 14 15 15 16 16 15 15 14 14 14 14 14 14 14 14 14 14 14 14 14 14 14 14 14
13 14 13 12 11 9 9 8 7 7 7 5 5 5 6 7 8 10 13 14 14 15 15 15 15 16 16 15 15 15 14 14 14 14 15 15 15 15 15 15 16 15 16
14 14 14 12 11 10 10 9 8 8 7 6 5 5 6 7 8 10 12 13 13 14 14 15 15 15 16 16 16 15 16 16 15 16 16 16 17 17 17 17 18 18 17
13 13 14 13 11 11 10 10 9 9 7 7 6 6 6 6 7 9 11 12 13 12 13 14 15 16 16 17 17 16 17 17 17 17 18 19 19 19 19 19 19 19 20
13 13 13 13 11 11 10 10 8 7 7 7 7 6 6 6 7 8 11 12 12 13 13 15 16 16 17 18 18 17 18 18 18 19 19 20 20 21 21 21 21 21 21
13 13 13 12 11 10 9 9 8 7 7 6 6 6 7 7 7 8 10 11 13 13 13 15 16 16 17 17 18 19 19 19 19 19 20 21 21 21 22 23 22 22 23
12 13 13 12 11 10 9 8 8 7 6 6 6 6 7 8 8 9 10 11 12 13 14 14 16 17 17 18 18 19 19 20 19 20 21 22 22 22 23 24 24 24 24
13 13 13 13 12 11 10 9 9 8 7 6 6 7 8 8 9 10 10 12 12 13 15 16 16 17 18 18 19 19 19 20 20 21 22 23 24 24 24 25 26 26 26
14 14 14 14 13 12 11 9 9 9 8 8 7 8 8 9 9 10 11 13 14 15 15 16 16 17 18 19 19 20 21 21 22 22 23 24 26 26 26 27 27 28 28
16 16 15 14 14 12 11 11 10 10 10 10 9 10 10 10 10 11 12 13 14 15 16 16 17 17 18 19 20 22 22 23 24 24 25 25 26 26 27 28 28 29 29
17 17 17 15 15 14 12 12 12 12 12 11 11 12 12 12 12 13 13 14 15 16 17 18 18 19 20 20 21 23 24 25 25 26 26 26 26 27 27 27 28 28 29
18 18 18 17 16 15 15 14 15 14 14 14 13 14 14 14 14 15 16 16 17 18 18 19 20 20 20 21 22 24 25 26 26 27 28 27 28 28 27 27 27 28 29
20 20 20 18 17 16 15 15 16 15 15 15 16 16 16 16 16 16 16 17 17 18 18 19 20 21 21 22 22 23 24 24 25 26 27 28 29 30 29 29 29 28 28
22 22 21 20 19 18 17 17 17 18 17 17 17 18 18 18 17 17 17 18 19 19 19 20 20 21 22 22 23 24 25 26 26 27 28 29 29 29 29 29 28 28 29
24 24 23 22 21 20 20 20 20 20 19 18 18 18 18 19 19 18 19 20 20 20 21 21 22 23 24 24 25 25 25 25 26 27 27 27 28 29 29 28 28 29 29
25 25 25 24 23 22 21 22 21 21 20 20 20 19 20 19 19 20 20 21 22 22 23 24 24 24 25 25 26 26 26 26 26 26 27 28 28 29 28 28 29 29 29
28 28 27 26 25 25 24 24 23 23 22 22 22 22 21 21 21 21 22 22 23 24 24 24 25 25 26 26 27 27 27 26 27 27 28 28 28 29 29 29 29 30 31
30 30 30 29 28 28 27 27 27 26 25 25 24 24 23 23 24 24 24 24 25 25 25 25 25 26 26 27 28 28 29 29 29 29 29 28 29 29 30 30 31 32 32
32 33 33 32 31 30 30 29 28 28 28 27 26 25 26 26 26 26 26 26 26 26 27 26 27 27 28 28 28 29 29 29 29 30 29 30 30 30 30 30 31 32 33
35 34 33 33 31 31 30 29 29 29 30 29 28 28 28 28 28 28 28 28 28 28 28 29 29 29 29 29 30 29 29 29 30 30 30 30 30 30 30 31 32 32 32
37 35 34 33 32 31 31 31 30 30 30 30 30 30 30 30 30 30 30 30 30 30 30 30 31 31 31 31 31 30 30 30 30 30 30 30 30 31 31 31 31 31 31
Wind_Direction
355 352 350 344 338 334 332 331 328 326 311 265 235 233 230 227 223 223 220 216 215 217 218 222 223 225 227 226 224 224 226 229 236 239 240 237 237 238 245 249 253 260 262
351 353 352 345 339 333 331 331 330 328 310 291 249 245 242 233 226 220 218 217 218 219 220 222 226 230 233 234 232 231 233 238 241 243 246 246 248 245 247 254 260 266 267
343 347 350 347 339 333 336 333 329 331 319 295 267 248 240 237 228 223 218 218 217 219 222 224 228 233 237 239 239 237 239 243 243 245 246 247 250 251 253 259 262 265 269
339 339 341 340 337 336 338 336 334 327 318 300 268 248 243 233 226 223 221 217 215 219 223 227 232 234 239 242 242 242 244 246 247 249 251 250 250 253 255 258 262 264 268
339 340 339 338 338 338 336 332 332 324 313 303 281 252 240 229 225 219 218 219 219 222 226 230 234 237 241 242 243 246 247 248 249 251 253 252 253 254 255 257 261 264 267
333 338 339 337 336 339 337 332 324 316 303 291 273 255 246 228 220 216 218 219 219 225 228 233 236 239 242 244 247 248 249 249 250 252 252 254 256 257 257 258 261 264 267
332 335 334 334 329 330 331 326 321 316 306 286 268 256 250 234 222 220 218 220 224 228 232 235 238 240 242 246 249 249 250 250 250 252 254 255 258 259 260 259 260 263 266
333 336 336 329 327 325 325 322 314 313 305 296 276 255 244 240 231 224 222 222 228 231 234 237 241 243 245 247 250 250 251 252 252 253 255 256 258 259 260 261 263 264 266
332 334 336 330 323 320 321 323 312 308 300 288 277 258 251 242 234 228 227 231 234 237 240 241 242 245 247 249 250 252 253 254 255 256 257 257 257 259 260 261 262 264 265
333 335 336 335 327 321 320 317 320 318 308 293 277 263 259 249 240 234 230 231 237 243 244 245 247 249 251 251 252 255 257 257 258 259 260 259 259 260 261 261 262 263 265
328 336 337 337 333 326 320 320 317 320 313 298 286 267 257 254 253 247 243 243 244 245 249 251 252 253 252 253 255 258 258 258 260 261 262 261 262 263 263 262 262 264 265
323 334 337 336 331 327 321 321 322 315 312 301 290 273 263 257 252 251 249 248 248 250 255 259 256 254 255 255 258 260 260 259 260 263 264 262 263 265 264 263 263 264 265
316 328 335 338 332 328 323 316 319 314 304 301 293 283 270 262 258 256 256 255 257 258 261 263 259 258 258 258 259 262 262 261 263 264 264 264 265 267 266 265 265 265 266
312 319 329 333 331 324 321 317 314 313 301 293 286 284 277 270 269 270 264 262 262 262 264 266 264 263 263 262 262 263 264 264 266 265 263 266 268 268 268 269 269 268 268
310 313 319 323 325 322 316 312 310 308 299 290 284 283 280 275 273 272 271 269 270 268 265 266 267 265 266 266 266 266 265 266 268 269 268 269 270 269 270 270 271 271 271
306 309 310 314 317 317 312 306 304 301 296 288 285 284 281 276 274 275 274 273 272 271 269 267 267 268 268 268 268 268 267 267 269 271 272 271 271 271 272 272 272 272 272
300 302 304 304 308 308 306 304 301 297 293 290 287 286 285 281 276 275 275 274 274 274 275 273 271 271 273 273 272 271 271 270 271 272 272 272 273 275 275 274 273 273 274
296 299 301 300 301 302 301 301 301 296 294 290 287 285 283 281 278 276 276 276 277 277 277 276 274 273 275 275 276 276 275 275 273 272 271 272 274 278 278 277 276 275 277
288 292 295 297 300 302 299 298 299 297 294 290 288 283 281 279 279 279 278 278 279 278 277 277 277 277 278 278 278 277 277 275 276 276 275 274 277 278 278 279 279 279 279
283 287 290 292 295 297 294 296 297 295 293 292 291 285 281 280 280 281 281 280 280 281 280 280 279 279 279 280 281 279 277 277 278 278 278 278 278 277 277 278 280 280 280
278 281 284 287 289 290 291 293 293 292 291 291 291 286 283 282 283 284 285 283 283 282 282 281 281 280 280 280 280 281 280 280 279 278 279 279 278 278 279 279 280 280 281
274 277 281 282 283 286 287 291 291 290 291 290 289 285 281 280 282 283 283 284 284 283 283 282 280 279 279 281 281 281 280 279 278 278 279 281 280 279 278 279 280 281 282
271 274 277 278 279 283 284 287 289 287 288 289 287 283 280 280 281 281 282 283 283 282 282 282 281 281 281 281 281 281 280 277 277 278 279 280 281 281 279 279 280 282 284
269 271 275 276 278 280 282 284 286 286 286 285 285 284 283 282 281 282 282 281 281 280 280 280 280 280 281 282 282 282 280 278 277 278 279 280 281 280 280 281 281 282 285
266 268 271 273 276 278 280 281 283 284 284 283 283 284 283 282 282 282 282 281 279 278 277 278 279 280 281 281 281 281 280 278 277 278 279 280 279 280 281 281 281 283 286
267 267 268 271 274 277 278 280 283 283 282 282 281 282 282 282 282 282 281 281 279 277 277 277 277 278 279 280 281 279 279 278 277 278 279 280 280 279 281 282 284 285 287
Height
5896 5894 5891 5889 5888 5886 5884 5882 5880 5879 5879 5879 5879 5880 5881 5882 5884 5886 5889 5891 5894 5896 5898 5899 5901 5902 5903 5904 5904 5905 5906 5906 5907 5908 5908 5909 5909 5910 5910 5910 5911 5911 5911
5896 5893 5891 5888 5887 5885 5883 5881 5879 5878 5878 5878 5877 5879 5880 5881 5883 5884 5887 5889 5892 5894 5896 5898 5900 5901 5902 5903 5903 5904 5905 5905 5906 5907 5907 5908 5909 5909 5909 5909 5910 5910 5910
5895 5892 5890 5888 5886 5884 5882 5881 5879 5878 5877 5877 5877 5878 5878 5879 5881 5883 5885 5887 5889 5892 5894 5896 5898 5899 5901 5901 5902 5903 5904 5904 5905 5905 5906 5906 5907 5907 5908 5908 5908 5909 5909
5894 5891 5889 5887 5885 5883 5881 5880 5878 5878 5876 5876 5875 5876 5877 5877 5879 5881 5882 5885 5887 5890 5892 5894 5896 5897 5899 5899 5900 5901 5901 5902 5903 5903 5904 5905 5905 5906 5906 5907 5907 5907 5907
5892 5889 5887 5886 5884 5882 5880 5878 5877 5877 5876 5875 5874 5874 5875 5876 5877 5879 5881 5883 5885 5888 5890 5892 5893 5895 5896 5897 5898 5898 5899 5900 5900 5901 5902 5902 5903 5903 5904 5904 5904 5904 5904
5891 5888 5886 5884 5882 5880 5879 5877 5876 5875 5875 5874 5873 5873 5873 5874 5875 5877 5879 5881 5883 5886 5887 5889 5891 5892 5893 5894 5895 5896 5896 5897 5898 5898 5899 5900 5900 5901 5901 5901 5901 5901 5901
5889 5887 5885 5883 5881 5879 5877 5876 5875 5874 5873 5873 5872 5872 5872 5873 5874 5875 5877 5879 5881 5883 5885 5886 5888 5889 5890 5891 5892 5893 5893 5894 5895 5895 5896 5896 5897 5897 5898 5898 5898 5898 5898
5888 5886 5883 5881 5880 5878 5876 5875 5874 5873 5872 5871 5871 5871 5871 5871 5872 5873 5875 5877 5879 5880 5882 5884 5885 5886 5887 5888 5889 5890 5890 5891 5891 5892 5892 5893 5893 5894 5894 5894 5894 5894 5894
5887 5885 5882 5880 5878 5876 5875 5873 5872 5871 5870 5870 5869 5869 5869 5870 5870 5871 5873 5875 5877 5878 5879 5881 5882 5883 5884 5885 5885 5886 5887 5887 5888 5888 5889 5889 5889 5890 5890 5890 5890 5890 5890
5885 5883 5881 5879 5877 5875 5873 5872 5871 5870 5869 5868 5868 5868 5868 5869 5869 5870 5871 5873 5874 5875 5876 5877 5878 5879 5880 5881 5882 5882 5883 5884 5884 5884 5885 5885 5885 5885 5885 5885 5885 5886 5886
5884 5882 5880 5878 5876 5874 5873 5871 5870 5869 5868 5867 5867 5866 5866 5867 5868 5869 5869 5871 5872 5873 5873 5874 5874 5875 5876 5877 5877 5878 5878 5879 5880 5880 5880 5880 5880 5880 5880 5880 5880 5880 5880
5882 5881 5879 5877 5875 5873 5871 5870 5868 5867 5866 5866 5865 5865 5865 5865 5866 5867 5868 5868 5869 5870 5870 5870 5871 5871 5872 5872 5873 5873 5874 5874 5874 5875 5875 5875 5875 5875 5875 5874 5874 5874 5874
5880 5878 5877 5875 5873 5872 5870 5868 5867 5866 5865 5865 5864 5864 5864 5864 5864 5864 5865 5866 5866 5866 5866 5866 5866 5867 5867 5867 5868 5868 5869 5869 5869 5869 5869 5869 5869 5869 5869 5868 5868 5868 5868
5877 5876 5875 5873 5871 5869 5868 5867 5866 5864 5864 5863 5863 5863 5862 5862 5861 5861 5862 5862 5862 5862 5863 5862 5862 5862 5863 5863 5863 5864 5864 5864 5864 5863 5863 5863 5863 5863 5862 5862 5862 5861 5861
5874 5873 5872 5870 5869 5867 5866 5865 5864 5863 5862 5861 5861 5860 5860 5859 5859 5859 5858 5858 5858 5858 5858 5858 5858 5858 5858 5858 5858 5858 5858 5858 5858 5858 5857 5857 5856 5856 5856 5855 5854 5854 5854
5871 5870 5869 5867 5866 5864 5863 5862 5861 5861 5860 5859 5858 5857 5857 5856 5856 5855 5855 5855 5854 5854 5854 5854 5854 5853 5853 5853 5853 5853 5852 5852 5852 5851 5850 5850 5850 5849 5849 5848 5847 5847 5846
5867 5866 5865 5864 5862 5861 5860 5859 5858 5857 5857 5856 5855 5854 5853 5853 5852 5852 5851 5851 5850 5850 5849 5849 5849 5848 5848 5848 5847 5847 5846 5845 5845 5844 5844 5843 5843 5842 5841 5840 5840 5839 5839
5863 5862 5861 5860 5858 5857 5856 5856 5855 5854 5853 5852 5851 5851 5850 5849 5848 5848 5847 5847 5846 5846 5845 5844 5844 5843 5843 5842 5841 5840 5839 5839 5838 5838 5837 5837 5836 5835 5834 5833 5832 5832 5831
5858 5858 5857 5856 5854 5853 5852 5852 5850 5849 5848 5847 5846 5845 5845 5844 5844 5843 5842 5842 5841 5841 5840 5839 5838 5838 5837 5836 5835 5834 5833 5832 5832 5831 5831 5830 5829 5828 5827 5826 5825 5824 5823
5852 5852 5851 5851 5850 5849 5848 5847 5845 5844 5843 5842 5841 5839 5839 5839 5839 5838 5837 5836 5836 5835 5834 5833 5833 5832 5831 5830 5828 5827 5826 5825 5825 5824 5823 5823 5822 5821 5819 5819 5817 5816 5815
5846 5846 5845 5845 5844 5844 5843 5842 5840 5839 5838 5837 5836 5835 5834 5834 5833 5832 5831 5831 5830 5829 5828 5827 5826 5825 5824 5823 5822 5821 5820 5819 5818 5817 5816 5815 5814 5813 5812 5811 5810 5808 5807
5839 5839 5838 5838 5838 5837 5836 5836 5834 5834 5833 5832 5831 5829 5828 5828 5827 5826 5826 5825 5823 5822 5821 5820 5819 5819 5817 5816 5815 5814 5812 5811 5811 5810 5809 5808 5806 5805 5804 5803 5802 5801 5799
5830 5831 5831 5831 5831 5830 5830 5829 5828 5827 5826 5825 5824 5822 5822 5821 5821 5820 5819 5818 5817 5816 5815 5813 5812 5811 5810 5809 5807 5806 5805 5804 5803 5802 5801 5800 5799 5797 5796 5795 5794 5792 5791
5822 5822 5822 5822 5822 5822 5821 5821 5820 5819 5818 5817 5816 5815 5815 5814 5814 5813 5812 5811 5809 5808 5807 5806 5805 5804 5803 5801 5800 5798 5797 5796 5795 5794 5793 5792 5791 5790 5788 5787 5785 5784 5782
5813 5813 5813 5814 5814 5813 5813 5812 5811 5811 5810 5809 5808 5808 5807 5806 5806 5805 5804 5803 5802 5801 5800 5799 5797 5796 5795 5793 5792 5790 5789 5788 5787 5786 5785 5784 5783 5781 5780 5778 5777 5775 5773
5804 5804 5805 5805 5805 5805 5804 5803 5803 5802 5802 5801 5800 5799 5798 5797 5797 5796 5795 5794 5793 5792 5791 5790 5789 5787 5786 5784 5783 5782 5780 5779 5778 5777 5776 5775 5774 5772 5771 5770 5768 5766 5765